Dewpoint
64 68 72 70 69 68 67 64 63 62 62 61 61 63 63 63 62 61 62 61 59 58 57 59 61 62 64 65 64 64 63 61 58 59 59 60 62 63 61 60 62 61 61
65 69 72 71 69 68 67 64 63 61 61 60 59 61 59 57 58 59 61 60 57 57 57 58 59 58 60 62 63 63 63 61 59 59 60 61 62 62 61 62 59 59 63
67 71 72 71 70 68 67 65 64 62 60 59 57 57 58 57 60 60 60 59 59 58 57 57 57 56 58 59 60 61 61 61 60 60 60 60 59 60 61 62 61 60 61
70 71 71 71 70 69 68 65 64 63 60 58 58 58 59 59 61 59 59 57 57 59 58 57 58 57 56 57 59 59 59 59 60 61 60 59 59 59 60 59 61 60 59
70 71 70 71 70 70 68 66 65 63 61 59 59 60 61 60 61 61 55 57 58 59 59 58 59 60 60 60 59 57 56 56 60 62 60 59 59 59 59 59 60 60 60
69 70 71 71 71 70 68 66 65 63 62 59 59 60 61 64 64 62 60 61 61 61 60 59 60 60 60 61 62 62 61 60 60 62 61 60 59 58 59 57 58 60 59
68 70 72 72 72 70 69 66 65 63 62 60 58 60 62 63 63 64 63 63 62 62 60 60 60 60 60 60 60 61 62 63 62 60 59 59 57 58 57 58 58 57 57
67 70 72 72 72 71 69 67 66 64 63 59 61 61 63 63 63 65 64 64 63 62 61 61 62 62 62 61 61 60 62 63 63 62 61 60 59 60 59 58 58 58 59
68 70 71 71 71 70 69 68 67 65 64 62 62 62 62 63 62 64 66 64 64 63 62 63 63 61 61 62 62 62 63 63 63 62 61 61 61 62 62 62 60 60 59
69 70 71 71 71 70 70 69 68 67 66 65 63 63 64 64 63 63 66 65 64 64 64 63 62 63 63 63 63 64 64 63 62 61 61 61 62 62 63 63 62 62 61
69 69 70 70 70 70 70 69 68 68 67 66 65 64 63 61 60 61 63 63 64 64 63 63 64 64 64 64 64 64 63 62 60 60 60 61 62 63 63 63 63 62 62
67 68 69 69 69 68 68 68 67 67 67 66 65 63 62 61 59 59 61 63 64 64 64 64 64 64 61 62 61 61 59 58 58 59 60 61 62 62 60 61 63 63 62
65 67 68 68 68 67 67 66 66 65 65 64 64 62 62 60 58 60 59 60 60 60 61 62 61 57 52 52 50 49 49 52 52 55 58 60 58 56 55 58 59 60 61
60 63 65 66 66 66 66 65 65 64 64 63 63 62 61 59 59 60 60 61 61 61 60 51 46 44 41 42 41 41 41 43 45 47 50 52 55 55 56 56 56 57 60
57 61 63 65 65 66 65 64 63 63 63 62 62 62 60 59 61 61 57 51 48 46 43 40 39 36 36 35 34 36 36 37 36 42 46 46 52 50 48 50 54 55 53
44 59 62 63 65 65 64 63 62 62 62 60 60 59 60 61 55 43 44 45 42 41 39 35 32 33 32 31 29 31 33 29 36 38 41 39 46 42 47 50 45 44 43
47 57 61 63 64 63 63 62 61 60 60 59 58 57 55 45 41 41 41 40 38 34 32 28 27 30 28 27 26 29 32 27 35 29 32 34 38 36 44 38 38 39 40
52 58 62 64 63 63 62 60 58 56 47 43 43 42 41 40 39 36 37 36 32 29 28 26 26 26 28 25 24 29 29 28 30 20 27 28 36 29 36 32 36 34 40
53 58 61 63 63 62 58 49 44 41 40 39 39 39 38 36 33 32 34 32 29 27 27 26 23 26 28 24 25 28 26 28 28 18 25 24 28 22 31 27 34 33 36
52 55 61 63 61 51 43 42 40 38 36 36 35 33 32 31 29 28 30 29 27 25 26 24 23 24 29 25 27 25 26 33 25 18 25 21 22 20 28 23 28 28 33
52 52 60 58 49 46 43 40 38 36 33 30 29 28 28 28 27 27 28 27 26 24 25 24 24 22 24 27 28 25 27 29 26 19 23 21 20 21 24 22 26 26 28
52 53 56 50 45 45 43 40 36 33 31 27 25 25 25 26 26 26 26 25 23 21 20 21 22 20 21 26 23 27 19 22 24 15 20 22 18 23 20 21 24 25 28
53 54 49 45 45 44 39 36 35 32 28 24 23 22 23 25 25 24 23 22 21 21 18 20 20 18 16 19 26 16 11 16 19 21 14 19 14 22 18 22 25 24 26
54 53 46 46 45 41 38 35 31 27 24 27 24 22 22 22 22 22 21 20 20 19 17 17 18 17 19 15 20 19 21 22 17 15 19 13 20 17 18 21 23 26 23
52 51 47 47 44 39 37 34 32 30 32 29 22 20 19 20 19 19 19 17 17 18 17 15 15 13 16 16 17 18 19 18 20 19 11 14 16 15 13 17 23 19 22
49 49 47 46 42 40 37 35 33 33 31 24 21 19 18 19 18 17 16 15 15 14 14 14 14 13 14 14 14 15 16 16 15 15 15 14 13 11 14 15 17 21 20
Wind_Speed
11 16 18 18 19 17 16 14 12 12 9 8 7 11 11 11 10 7 6 3 7 8 4 4 7 8 9 6 5 2 2 1 1 5 6 6 5 5 6 7 13 3 7
16 17 20 17 18 17 15 14 12 11 10 9 8 10 7 8 6 6 6 7 5 6 4 5 5 5 5 5 2 1 2 5 5 5 6 5 5 5 6 10 3 3 4
19 15 17 17 17 16 15 13 12 11 10 9 10 9 7 8 7 6 7 8 5 5 3 3 4 6 4 4 3 3 4 4 5 5 5 4 5 8 7 8 3 5 6
18 14 15 18 16 16 16 14 12 10 10 10 10 9 9 9 7 6 6 2 3 3 2 1 2 4 4 5 6 7 8 9 6 7 6 5 6 10 9 11 6 7 9
16 13 14 18 17 18 17 14 12 11 10 9 8 3 2 6 8 11 7 9 7 5 3 1 1 3 4 5 6 7 8 9 7 7 7 7 8 10 11 9 9 9 10
16 14 14 18 17 18 17 15 13 12 10 9 9 4 2 2 6 10 7 11 9 6 3 1 1 3 5 7 8 9 9 9 7 7 9 11 10 11 12 13 12 11 11
16 14 14 17 17 18 17 15 14 12 10 9 10 7 3 3 1 12 9 7 6 4 2 2 4 6 7 8 9 10 9 10 8 8 10 11 11 12 14 14 15 14 13
18 14 13 17 17 18 16 15 14 13 11 10 10 8 6 1 4 3 6 7 6 4 4 4 6 8 9 9 9 10 10 10 9 10 11 12 14 15 15 15 15 16 15
13 15 14 14 17 18 17 16 14 13 12 11 9 8 6 5 1 2 3 5 4 4 5 7 9 10 10 11 10 11 11 12 11 11 12 12 14 15 14 14 15 16 17
13 14 15 14 14 13 14 16 15 14 13 11 9 6 5 4 3 1 2 1 5 7 8 10 10 10 10 11 11 13 12 13 11 11 12 13 15 16 16 15 15 16 17
13 14 14 15 14 13 13 13 13 14 13 12 9 7 4 4 4 4 4 6 7 8 8 9 9 9 11 12 13 13 13 11 12 13 12 15 16 16 17 18 18 18 19
16 16 15 15 15 14 10 10 11 10 10 9 8 6 5 5 4 5 5 6 6 8 9 10 12 12 11 8 9 10 9 11 11 12 12 15 16 16 16 17 19 19 19
19 14 16 15 15 15 12 11 10 9 9 8 8 6 5 2 1 2 0 2 3 5 6 6 7 8 10 9 10 10 10 10 11 11 10 12 13 14 15 15 18 17 18
17 22 17 16 16 15 13 13 13 11 9 8 8 7 5 3 2 1 3 4 4 4 4 7 7 9 11 12 12 13 13 13 13 13 13 14 13 14 13 12 12 14 15
19 20 20 17 17 15 15 12 12 11 10 8 8 7 6 5 4 6 8 9 11 9 9 9 10 12 14 14 14 13 13 14 14 12 10 14 14 15 16 14 14 16 18
22 21 19 19 16 16 14 12 12 10 10 7 7 8 7 7 10 11 10 11 10 9 8 10 11 12 12 13 15 15 13 15 12 11 11 13 15 18 17 15 17 18 18
19 17 22 19 16 17 16 13 13 10 11 10 9 10 12 12 11 11 10 12 10 9 9 12 13 13 15 15 16 14 13 15 10 14 13 14 14 18 17 19 19 19 18
12 19 19 15 17 17 17 11 11 12 13 13 12 13 14 14 10 12 13 12 8 12 13 12 13 12 14 17 18 15 14 10 8 15 13 15 13 15 14 19 19 20 17
12 16 19 19 20 18 15 13 14 12 12 11 12 12 14 14 11 14 13 10 10 13 14 11 9 9 11 18 16 17 13 6 6 11 13 14 12 14 13 16 17 18 18
10 13 16 16 20 19 17 16 13 13 12 10 13 12 16 14 12 15 13 13 12 12 13 12 10 9 4 16 12 17 14 2 4 13 9 11 11 14 12 14 15 14 17
9 13 19 22 20 21 19 18 14 14 12 12 12 14 16 14 13 15 13 12 11 11 9 10 7 9 5 14 6 10 6 3 5 10 10 10 14 13 10 14 14 14 14
15 15 17 20 20 18 17 15 11 12 8 12 12 14 15 14 13 13 12 11 10 9 11 11 10 6 5 10 8 4 8 8 4 26 10 10 14 14 16 16 18 16 13
17 19 20 19 19 17 18 19 17 14 11 9 11 13 11 13 13 13 12 10 9 9 9 8 9 10 7 7 10 7 6 5 17 4 16 6 19 11 15 16 16 15 14
17 19 20 21 20 20 19 22 25 15 17 7 10 11 11 12 12 11 11 9 9 7 9 8 8 8 5 9 4 8 2 5 6 12 4 18 8 18 15 15 17 15 15
19 21 20 21 20 20 19 21 21 20 11 14 16 15 12 10 10 9 9 8 8 7 6 8 8 10 7 6 6 5 4 7 6 7 22 16 19 17 17 15 14 17 16
18 21 22 23 20 20 20 20 23 23 21 19 15 14 11 8 7 7 7 8 7 7 7 7 7 8 9 8 8 8 6 5 11 9 14 21 23 18 16 20 18 15 14
Wind_Direction
208 188 184 174 167 158 156 154 154 142 143 132 133 138 128 124 137 145 147 145 103 97 71 324 12 26 54 74 111 119 129 89 350 346 330 325 311 273 249 247 250 225 278
164 182 180 170 161 161 162 158 156 150 153 139 138 150 165 124 145 151 155 143 124 113 55 328 341 358 31 37 35 313 278 275 317 342 324 324 303 282 264 276 218 211 256
157 171 171 177 162 162 161 159 161 158 157 154 152 155 155 157 156 154 168 147 117 94 65 353 351 345 333 337 328 313 292 281 275 302 314 316 305 290 264 263 200 254 261
157 162 164 165 166 169 162 166 167 168 164 162 166 165 177 194 165 150 158 140 163 160 154 17 6 355 333 316 304 292 289 291 301 297 325 314 312 304 281 255 233 262 265
158 160 166 170 172 168 165 169 172 176 175 179 183 155 121 181 194 176 177 176 185 182 155 129 338 315 323 314 312 302 301 301 311 303 310 309 307 303 297 256 251 278 280
162 164 171 173 175 166 169 172 175 177 183 182 185 168 180 212 220 198 199 159 172 171 174 208 267 285 297 295 294 291 295 296 304 280 291 293 294 292 286 277 268 260 265
167 169 172 175 175 170 170 175 177 179 181 180 182 182 178 22 65 207 200 168 167 178 208 270 281 296 299 296 290 292 290 275 271 264 273 282 282 282 280 274 274 267 266
167 168 168 173 176 172 174 177 179 179 176 176 176 183 179 223 15 134 158 163 187 220 260 282 290 287 289 287 285 283 284 289 283 269 265 268 273 279 280 277 274 275 265
166 165 170 173 176 175 176 178 183 182 179 177 180 188 197 198 206 45 174 186 231 261 265 281 291 298 297 296 292 285 283 281 278 273 271 269 270 278 280 276 272 269 272
172 173 175 173 175 180 181 182 185 188 188 170 170 171 185 211 211 55 89 249 257 267 282 293 300 302 299 298 297 293 294 292 287 284 280 276 277 285 287 281 280 272 268
187 186 181 182 181 183 184 190 189 186 179 173 177 181 180 207 211 208 211 236 259 270 288 299 303 297 296 303 309 311 313 305 300 291 284 283 283 288 292 289 280 273 275
201 199 194 189 184 183 186 189 185 176 180 178 182 189 189 200 202 211 221 252 274 297 306 315 320 332 339 335 331 340 340 331 322 307 299 299 304 309 309 301 289 287 287
212 203 203 194 186 182 186 187 186 178 181 184 195 195 197 183 65 126 275 331 317 311 323 343 356 24 33 17 10 4 359 0 351 344 331 319 318 318 320 315 315 317 305
211 211 204 197 187 187 185 186 186 181 185 190 198 193 180 160 181 97 44 45 53 21 47 58 37 25 22 13 11 5 5 359 358 350 341 342 341 349 348 343 338 342 336
231 213 204 192 189 186 185 185 182 189 188 193 196 193 165 161 123 95 87 77 64 58 47 41 30 22 17 7 6 2 359 357 347 348 356 357 10 23 16 11 14 19 11
232 212 194 195 186 178 181 182 186 188 182 161 153 143 138 130 114 102 87 78 63 55 48 42 32 27 18 7 357 352 354 354 354 9 8 9 17 21 19 28 16 16 9
217 200 187 183 172 170 163 158 166 153 136 118 118 118 115 105 108 99 87 72 57 49 46 35 28 26 16 3 353 344 350 352 10 16 18 15 15 16 19 17 13 13 7
213 190 170 159 160 154 153 135 117 119 118 113 111 110 109 106 100 97 85 70 55 49 42 33 24 14 10 0 346 333 339 346 23 25 24 13 21 15 13 11 11 9 11
203 174 164 155 152 142 122 107 103 103 104 110 110 108 106 99 94 89 82 70 55 50 40 25 21 19 11 355 336 322 330 330 26 15 20 12 22 11 9 4 3 4 4
170 162 153 143 140 129 116 108 98 95 92 98 103 107 103 95 89 85 75 63 55 51 36 24 14 4 4 354 323 314 321 302 22 22 12 3 15 14 5 357 358 350 353
173 159 159 150 147 137 131 122 119 122 118 101 99 99 95 93 86 81 77 67 60 60 49 32 8 1 347 351 325 327 320 309 245 357 354 357 11 357 357 355 347 336 339
179 171 158 153 150 143 139 136 128 133 108 109 102 89 89 89 85 83 83 72 59 54 43 36 33 2 356 360 353 325 344 330 342 326 328 353 350 343 349 339 330 324 330
179 168 156 150 146 137 128 115 108 104 105 106 98 92 87 92 88 87 81 77 68 62 48 37 32 33 7 358 38 39 345 317 320 283 315 331 336 325 325 315 309 307 316
175 154 149 150 145 142 141 139 147 150 148 148 127 116 102 92 89 86 85 81 73 61 49 34 30 28 35 20 343 16 333 287 319 316 302 313 314 318 308 306 299 302 304
164 158 151 150 147 147 145 147 147 147 137 134 128 121 105 93 86 85 86 80 70 58 48 36 24 20 23 13 9 335 313 304 265 291 304 314 312 314 309 295 300 301 296
160 157 155 154 153 151 150 152 153 151 146 145 145 132 127 111 95 83 80 73 63 47 34 25 17 16 11 4 350 345 336 326 316 308 299 305 301 308 312 302 290 292 290